Hourly Data Report for October 06, 2014

All times are specified in Local Standard Time (LST). Add 1 hour to adjust for Daylight Saving Time where and when it is observed.

TORONTO INTL A
ONTARIO

43°40'36.000" N
79°37'50.000" W
173.40 m
6158731
71624
YYZ

Download Data

Hourly Data (October 2014)
Hourly Data Report for October 6, 2014
Temp Definition
°C
Dew Point Temp Definition
°C
Rel Hum Definition
%
Wind Dir Definition
10's deg

Wind Spd Definition
km/h
Visibility Definition
km
Stn Press Definition
kPa
Hmdx Definition


Wind Chill Definition


Weather Definition


TIME
00:00 Legend Double Dagger 10.9 4.2 63 17 15 24.1 98.71     LegendNANA
01:00 Legend Double Dagger 10.2 5.0 70 20 23 24.1 98.72     Rain Showers
02:00 Legend Double Dagger 9.8 5.8 76 22 18 24.1 98.67     Rain Showers
03:00 Legend Double Dagger 9.5 5.7 77 21 12 24.1 98.61     Rain Showers
04:00 Legend Double Dagger 9.8 5.8 76 19 8 24.1 98.59     Mostly Cloudy
05:00 Legend Double Dagger 9.6 6.7 82 16 14 24.1 98.61     Rain Showers
06:00 Legend Double Dagger 10.1 7.5 84 17 9 24.1 98.59     LegendNANA
07:00 Legend Double Dagger 10.6 8.2 85 17 12 24.1 98.62     Rain Showers
08:00 Legend Double Dagger 11.4 8.8 84 17 6 24.1 98.62     Rain Showers
09:00 Legend Double Dagger 13.9 8.4 69 17 21 24.1 98.65     LegendNANA
10:00 Legend Double Dagger 14.0 8.2 68 20 21 24.1 98.67     Mostly Cloudy
11:00 Legend Double Dagger 14.3 8.5 68 19 17 24.1 98.63     LegendNANA
12:00 Legend Double Dagger 15.6 8.9 64 20 17 24.1 98.64     LegendNANA
13:00 Legend Double Dagger 15.6 9.1 65 16 28 24.1 98.57     Mostly Cloudy
14:00 Legend Double Dagger 16.2 9.5 64 16 26 24.1 98.54     LegendNANA
15:00 Legend Double Dagger 15.8 8.6 62 17 28 24.1 98.56     LegendNANA
16:00 Legend Double Dagger 15.8 9.1 64 20 18 24.1 98.57     Mostly Cloudy
17:00 Legend Double Dagger 15.6 9.8 68 16 13 24.1 98.56     LegendNANA
18:00 Legend Double Dagger 15.1 10.8 75 15 12 24.1 98.55     LegendNANA
19:00 Legend Double Dagger 15.4 9.4 67 16 24 24.1 98.51     Cloudy
20:00 Legend Double Dagger 14.5 9.6 72 15 17 24.1 98.52     LegendNANA
21:00 Legend Double Dagger 13.9 11.1 83 15 21 24.1 98.50     LegendNANA
22:00 Legend Double Dagger 13.8 12.0 89 16 16 19.3 98.49     Rain Showers
23:00 Legend Double Dagger 12.2 9.3 82 23 18 24.1 98.54     Rain Showers

Notes on Data Quality.

Legend

  • E = Estimated
  • M = Missing
  • NA = Not Available
  • ‡ = Partner data that is not subject to review by the National Climate Archives
Date modified: